Charter Quote
Worldwide +1-877-727-2538 Call
Select Language Lang
SAFETY RELIABILITY EXPERIENCE

Private Jet Charter Services - Jiangbei (ZUCK)

Paramount Business Jets offers private jet charter flights and luxury airliner charters to and from Jiangbei.

AIRPORT INFORMATION
ICAOZUCK
LOCATIONChongqing, China
FACILITY TYPEAIRPORT

At Paramount Business Jets you can hire chartered private jets to and from Jiangbei with as little as 4 hours of notice. All flights booked via Paramount Business Jets are operated by certified direct air carriers that meet and exceed the FAA part 135 and 121 protocol or a foreign equivalent safety authority. Furthermore, Paramount Business Jets subscribes to ARGUS for their third party safety checks of operators, aircraft, and crews prior each and every flight to and from Jiangbei and worldwide.

  • Quote a trip using Jiangbei or call us 24/7 - 365 days a year at +1-877-727-2538.
Questions? Call +1-877-727-2538

METAR Weather Data at Jiangbei, ZUCK

STATIONZUCK
OBSERVEDMon Oct 21, 20:00 UTC
NOWMon Oct 21, 20:54 UTC
AGE54 min ago
WINDcalm
VISIBILITY11 miles
CLOUDSovercast
TEMP61°F (16°C)
DEWPT61°F (16°C)
HUMIDITY100%
BAROMETER1010 hPa (29.83 in Hg)
METARZUCK 212000Z 00000MPS 7000 R02L/P2000 R02R/P2000 R03/1200 RA FEW004 SCT011 OVC033 16/16 Q1010 NOSIG

Call us on +1-877-727-2538 (24 Hours) to Hire a Private Jet or Get a Quick Quote.

Find Airports Near any Location

Processing
...